Satellite: UO-11
Catalog number: 14781
Epoch time:      11145.76017721
Element set:    0565
Inclination:      098.0068 deg
RA of node:       202.5386 deg
Eccentricity:    0.0008459
Arg of perigee:   205.7498 deg
Mean anomaly:     154.3293 deg
Mean motion:   14.79969574 rev/day
Decay rate:        7.0e-07 rev/day^2
Epoch rev:           46247
Checksum:              329

Satellite: STUDSAT
Catalog number: 36801
Epoch time:      11145.77603361
Element set:    0203
Inclination:      098.1096 deg
RA of node:       213.6621 deg
Eccentricity:    0.0013371
Arg of perigee:   343.5318 deg
Mean anomaly:     016.5451 deg
Mean motion:   14.80576499 rev/day
Decay rate:      1.449e-05 rev/day^2
Epoch rev:           04698
Checksum:              292

Satellite: SO-50
Catalog number: 27607
Epoch time:      11145.84583953
Element set:     474
Inclination:      064.5594 deg
RA of node:       035.5643 deg
Eccentricity:    0.0070212
Arg of perigee:   326.2329 deg
Mean anomaly:     033.4291 deg
Mean motion:   14.71743604 rev/day
Decay rate:        9.5e-07 rev/day^2
Epoch rev:           45280
Checksum:              300

Satellite: SOHLA-1
Catalog number: 33496
Epoch time:      11145.85425054
Element set:    0429
Inclination:      098.0788 deg
RA of node:       255.9139 deg
Eccentricity:    0.0006235
Arg of perigee:   185.5492 deg
Mean anomaly:     174.5642 deg
Mean motion:   14.69614588 rev/day
Decay rate:        2.8e-07 rev/day^2
Epoch rev:           12520
Checksum:              322

Satellite: AO-16
Catalog number: 20439
Epoch time:      11145.87120047
Element set:    0205
Inclination:      098.3830 deg
RA of node:       096.2375 deg
Eccentricity:    0.0010068
Arg of perigee:   227.5954 deg
Mean anomaly:     132.4376 deg
Mean motion:   14.31920226 rev/day
Decay rate:        5.3e-07 rev/day^2
Epoch rev:           11442
Checksum:              272

Satellite: LO-19
Catalog number: 20442
Epoch time:      11145.88432015
Element set:     108
Inclination:      098.3460 deg
RA of node:       100.6882 deg
Eccentricity:    0.0011118
Arg of perigee:   220.2417 deg
Mean anomaly:     139.7944 deg
Mean motion:   14.32146589 rev/day
Decay rate:       1.55e-06 rev/day^2
Epoch rev:           11460
Checksum:              272

Satellite: AO-27
Catalog number: 22825
Epoch time:      11145.88973827
Element set:     825
Inclination:      098.5306 deg
RA of node:       090.8040 deg
Eccentricity:    0.0008227
Arg of perigee:   347.8307 deg
Mean anomaly:     012.2670 deg
Mean motion:   14.29347904 rev/day
Decay rate:       1.51e-06 rev/day^2
Epoch rev:           92100
Checksum:              300

Satellite: IO-26
Catalog number: 22826
Epoch time:      11145.89326954
Element set:    0593
Inclination:      098.5249 deg
RA of node:       091.2901 deg
Eccentricity:    0.0008808
Arg of perigee:   342.2563 deg
Mean anomaly:     017.8312 deg
Mean motion:   14.29609276 rev/day
Decay rate:        4.5e-07 rev/day^2
Epoch rev:           92112
Checksum:              314

Satellite: CP3
Catalog number: 31129
Epoch time:      11146.51820350
Element set:     877
Inclination:      097.9004 deg
RA of node:       171.9843 deg
Eccentricity:    0.0100659
Arg of perigee:   247.8458 deg
Mean anomaly:     111.2021 deg
Mean motion:   14.52480952 rev/day
Decay rate:       4.18e-06 rev/day^2
Epoch rev:           21769
Checksum:              294

Satellite: TISAT-1
Catalog number: 36799
Epoch time:      11146.71303168
Element set:     890
Inclination:      098.1024 deg
RA of node:       214.7490 deg
Eccentricity:    0.0014988
Arg of perigee:   351.9422 deg
Mean anomaly:     008.1543 deg
Mean motion:   14.80542671 rev/day
Decay rate:       5.59e-06 rev/day^2
Epoch rev:            4713
Checksum:              304

Satellite: KKS-1
Catalog number: 33493
Epoch time:      11146.75297461
Element set:     615
Inclination:      098.1220 deg
RA of node:       275.0552 deg
Eccentricity:    0.0021104
Arg of perigee:   109.6685 deg
Mean anomaly:     250.6814 deg
Mean motion:   14.81677935 rev/day
Decay rate:       8.83e-06 rev/day^2
Epoch rev:           12634
Checksum:              302

Satellite: RAX
Catalog number: 37223
Epoch time:      11145.39435149
Element set:    0170
Inclination:      071.9708 deg
RA of node:       089.0102 deg
Eccentricity:    0.0021524
Arg of perigee:   324.1787 deg
Mean anomaly:     035.7935 deg
Mean motion:   14.77405982 rev/day
Decay rate:       4.46e-06 rev/day^2
Epoch rev:           02752
Checksum:              291

Satellite: OOREOS
Catalog number: 37224
Epoch time:      11076.42207246
Element set:    0109
Inclination:      071.9712 deg
RA of node:       241.3960 deg
Eccentricity:    0.0017800
Arg of perigee:   096.5373 deg
Mean anomaly:     263.7815 deg
Mean motion:   14.76929834 rev/day
Decay rate:       8.68e-06 rev/day^2
Epoch rev:           01732
Checksum:              300

Satellite: FO-69
Catalog number: 37227
Epoch time:      11143.46551303
Element set:    0035
Inclination:      071.9698 deg
RA of node:       093.7761 deg
Eccentricity:    0.0017832
Arg of perigee:   322.8506 deg
Mean anomaly:     037.1430 deg
Mean motion:   14.76583140 rev/day
Decay rate:       1.41e-06 rev/day^2
Epoch rev:           00567
Checksum:              292

